[[{"header":{"parameterUnit":"m.s-1","parameterCategory":1,"la1":30.2991,"la2":30.254,"lo1":-89.0895,"lo2":-89.0444,"dy":0.0017,"dx":0.0017,"nx":28,"ny":28,"refTime":"2025-11-18T03:00:00:Z","depth":0,"parameterNumber":2,"parameterNumberName":"U-component_of_WINDS"},"data":[0,0,0,0,0,0,0,0,0,0,0,0,0,0,0,0,0,0,0,0,0,0,0,0,0,0,0,0,0,0,0,0,0,0,0,0,0,0,0,0,0,0,0,0,0,0,0,0,0,0,0,0,0,0,0,0,0,0,1.4626,1.4627,0,1.4735,1.4736,1.4737,1.4761,1.476,1.476,1.4759,1.4869,1.4873,1.4876,0,0,0,0,0,0,0,0,0,0,0,0,0,1.4436,1.4439,1.4625,1.4627,1.4628,1.4735,1.4736,1.4738,1.4761,1.476,1.4759,1.4759,1.4868,1.4872,1.4877,0,0,0,0,0,0,0,0,0,0,0,0,0,1.4529,1.444,1.4625,1.4653,1.4656,1.4734,1.4736,1.4738,1.4762,1.476,1.4759,1.4758,1.4867,1.4872,1.4877,1.4935,0,0,1.4894,1.4896,0,0,0,0,0,0,0,0,1.4523,1.4536,1.4647,1.4651,1.4655,1.4733,1.471,1.4804,1.4762,1.4722,1.4759,1.4758,1.4825,1.4834,1.4857,1.494,1.4945,1.4895,1.4898,1.49,1.4902,0,0,0,0,0,0,0,1.4517,1.4531,1.4669,1.4649,1.4654,1.4659,1.4671,1.4728,1.4778,1.4725,1.4727,1.474,1.4827,1.4851,1.4859,1.4946,1.4894,1.4899,1.4903,1.4905,1.5082,1.5084,0,0,0,0,0,0,1.4506,1.4526,1.4665,1.4672,1.4585,1.4664,1.4677,1.4709,1.4778,1.4787,1.4741,1.474,1.4842,1.4853,1.4863,1.4935,1.49,1.4905,1.4909,1.5081,1.5083,1.5084,0,0,0,0,0,0,1.4502,1.4518,1.4661,1.4599,1.4618,1.4668,1.4704,1.4712,1.4737,1.479,1.4799,1.4757,1.4842,1.4856,1.4917,1.4939,1.4908,1.4913,1.5079,1.5081,1.5083,1.5079,0,0,0,0,0,0,1.4496,1.4516,1.4539,1.46,1.4621,1.4713,1.4706,1.4715,1.4746,1.4747,1.4807,1.4816,1.4842,1.4909,1.4922,1.4946,1.4917,1.5077,1.508,1.5083,1.5078,1.5081,1.5084,0,0,0,0,0,1.4489,1.4533,1.454,1.4557,1.4651,1.4714,1.4726,1.4756,1.4748,1.4771,1.4805,1.4814,1.4935,1.4915,1.493,1.4956,1.5076,1.5079,1.5083,1.5076,1.508,1.5084,0,0,0,0,0,0,1.4473,1.4542,1.455,1.4615,1.4659,1.4718,1.4748,1.476,1.4806,1.4805,1.4839,1.4853,1.4912,1.494,1.4917,1.5016,1.5005,1.5012,1.4995,1.4999,1.5002,1.4994,1.4922,0,0,0,0,0,1.4477,1.4524,1.4581,1.4633,1.4654,1.4697,1.4726,1.4745,1.4792,1.481,1.4849,1.4893,1.4941,1.4972,1.5019,1.5082,1.5095,1.5108,1.5111,1.5113,1.5118,1.5154,1.516,1.5095,1.5095,1.5095,0,0,1.4486,1.4529,1.4556,1.463,1.4667,1.4713,1.4713,1.4762,1.4797,1.4818,1.4878,1.4908,1.4959,1.5022,1.5051,1.5047,1.5139,1.5117,1.5119,1.5123,1.5158,1.5164,1.5169,1.5097,1.5096,1.5096,0,0,1.4526,1.4563,1.4611,1.4647,1.4702,1.4731,1.4742,1.48,1.4821,1.4882,1.4898,1.494,1.5022,1.5058,1.5087,1.5141,1.5151,1.5156,1.5172,1.5206,1.5211,1.5216,1.5235,1.5241,1.5161,1.5161,1.5161,0,1.4529,1.4601,1.4633,1.4682,1.4714,1.4736,1.4784,1.4817,1.4884,1.4906,1.4901,1.5004,1.5041,1.5112,1.5125,1.5148,1.5162,1.5149,1.5208,1.5213,1.5218,1.5237,1.5244,1.5161,1.5161,1.5161,1.5161,0,1.4603,1.4652,1.4684,1.4749,1.4785,1.4833,1.4872,1.4904,1.492,1.4949,1.5011,1.5056,1.5112,1.5131,1.5147,1.5205,1.52,1.5201,1.5191,1.5224,1.5242,1.5249,1.5161,1.5161,1.5161,1.5161,0,0,1.4635,1.4718,1.4729,1.4759,1.4821,1.486,1.4909,1.4965,1.4992,1.5037,1.5079,1.5148,1.515,1.5183,1.5203,1.5233,1.5273,1.5231,1.5232,1.5237,1.5339,1.5338,1.5346,1.528,1.5282,1.5283,1.5335,0,1.4682,1.4771,1.4802,1.4875,1.4921,1.4942,1.4985,1.5028,1.5056,1.5099,1.513,1.5179,1.5177,1.5197,1.5228,1.5262,1.5294,1.5259,1.5319,1.5321,1.5305,1.5355,1.5354,1.5401,1.5342,1.5343,1.5344,0,1.4749,1.4796,1.4875,1.4932,1.4952,1.499,1.5044,1.5085,1.5134,1.5152,1.5189,1.5208,1.526,1.5247,1.5318,1.5293,1.532,1.534,1.5343,1.5349,1.5334,1.5362,1.5416,1.5423,1.5356,1.5355,1.5354,0,1.4764,1.4847,1.4905,1.493,1.4998,1.5025,1.5054,1.5102,1.5134,1.518,1.5201,1.5253,1.5282,1.5321,1.5353,1.5341,1.5422,1.5412,1.5438,1.5438,1.5454,1.5452,1.5512,1.5472,1.5472,1.5471,1.5471,0,1.4813,1.486,1.4913,1.4948,1.5002,1.5036,1.5088,1.5118,1.5161,1.5202,1.5224,1.5262,1.5302,1.5345,1.537,1.5426,1.5438,1.5454,1.5461,1.5452,1.545,1.547,1.5467,1.5473,1.5473,1.5473,1.5472,0,1.4839,1.4876,1.494,1.5,1.5016,1.5053,1.5103,1.5138,1.5168,1.522,1.5234,1.5281,1.5333,1.5369,1.5435,1.5452,1.5512,1.5518,1.5496,1.5499,1.5523,1.552,1.5597,1.5609,1.5561,1.5561,1.5562,0,1.4867,1.4904,1.4968,1.4998,1.5027,1.5075,1.5108,1.5143,1.5176,1.5235,1.5263,1.5317,1.5362,1.5444,1.5483,1.5534,1.5541,1.5565,1.5549,1.554,1.5541,1.5538,1.5542,1.5567,1.5567,1.5568,1.5568,0,1.4914,1.4931,1.4978,1.5032,1.507,1.5114,1.5158,1.518,1.5223,1.526,1.5314,1.5349,1.5417,1.547,1.5525,1.5555,1.5569,1.5573,1.5582,1.5573,1.5559,1.5567,1.5502,1.5571,1.557,1.557,1.557,1.557,1.4942,1.4976,1.5026,1.5078,1.5115,1.5155,1.5191,1.5226,1.5272,1.5331,1.5349,1.5405,1.5453,1.5528,1.5559,1.5603,1.5601,1.5614,1.5617,1.562,1.5619,1.5552,1.5613,1.5613,1.5613,1.5613,1.5613,0,1.499,1.5023,1.5071,1.5132,1.5172,1.5182,1.5231,1.5264,1.5314,1.5358,1.5402,1.5464,1.5516,1.5559,1.5612,1.5639,1.5647,1.5652,1.565,1.5657,1.5618,1.5605,1.5645,1.5645,1.5645,1.5645,1.5645,1.5645,1.5019,1.5077,1.51,1.5176,1.5209,1.5265,1.5292,1.533,1.5365,1.5434,1.5477,1.5505,1.5549,1.5606,1.5654,1.5665,1.5684,1.5688,1.57,1.5663,1.566,1.5656,1.5644,1.5691,1.5692,1.5735,1.5736,1.5736]},{"header":{"parameterUnit":"m.s-1","parameterCategory":1,"la1":30.2991,"la2":30.254,"lo1":-89.0895,"lo2":-89.0444,"dy":0.0017,"dx":0.0017,"nx":28,"ny":28,"refTime":"2025-11-18T03:00:00:Z","depth":0,"parameterNumber":3,"parameterNumberName":"V-component_of_WINDS"},"data":[0,0,0,0,0,0,0,0,0,0,0,0,0,0,0,0,0,0,0,0,0,0,0,0,0,0,0,0,0,0,0,0,0,0,0,0,0,0,0,0,0,0,0,0,0,0,0,0,0,0,0,0,0,0,0,0,0,0,0.352,0.3519,0,0.3436,0.3435,0.3434,0.3395,0.3395,0.3395,0.3396,0.3304,0.3302,0.3299,0,0,0,0,0,0,0,0,0,0,0,0,0,0.3644,0.3642,0.352,0.3519,0.3518,0.3436,0.3435,0.3433,0.3395,0.3395,0.3395,0.3396,0.3305,0.3302,0.3299,0,0,0,0,0,0,0,0,0,0,0,0,0,0.3578,0.3641,0.3521,0.3489,0.3486,0.3436,0.3434,0.3433,0.3395,0.3395,0.3395,0.3396,0.3306,0.3302,0.3299,0.3272,0,0,0.3287,0.3285,0,0,0,0,0,0,0,0,0.3581,0.3573,0.3495,0.3491,0.3487,0.3426,0.3444,0.3379,0.3395,0.3429,0.3396,0.3396,0.3344,0.3337,0.3321,0.3268,0.3264,0.3287,0.3284,0.3283,0.3282,0,0,0,0,0,0,0,0.3586,0.3576,0.3487,0.3494,0.3489,0.3478,0.3469,0.3432,0.3387,0.3426,0.3423,0.3414,0.3342,0.3325,0.3319,0.3263,0.3287,0.3283,0.3281,0.328,0.3181,0.3181,0,0,0,0,0,0,0.3596,0.3581,0.3489,0.3484,0.3536,0.3475,0.3465,0.3446,0.3387,0.3379,0.3414,0.3413,0.3331,0.3323,0.3315,0.3279,0.3283,0.3279,0.3277,0.3181,0.3181,0.3181,0,0,0,0,0,0,0.3599,0.3589,0.3493,0.3531,0.3518,0.3473,0.3451,0.3444,0.3426,0.3378,0.3369,0.3405,0.3331,0.3321,0.3283,0.3276,0.3278,0.3274,0.3182,0.3181,0.3181,0.3208,0,0,0,0,0,0,0.3603,0.359,0.3581,0.3532,0.3517,0.3464,0.3451,0.3442,0.3421,0.3418,0.3367,0.3359,0.333,0.3289,0.3279,0.327,0.3271,0.3182,0.3182,0.3181,0.3208,0.3209,0.3209,0,0,0,0,0,0.3607,0.3591,0.3581,0.357,0.3505,0.3463,0.3455,0.3424,0.342,0.341,0.3378,0.336,0.3278,0.3285,0.3274,0.3264,0.3183,0.3182,0.3181,0.3207,0.3208,0.3209,0,0,0,0,0,0,0.3639,0.3584,0.3572,0.354,0.3507,0.3457,0.3443,0.3426,0.3392,0.3391,0.3352,0.3341,0.3306,0.3281,0.3291,0.3234,0.3229,0.3226,0.3252,0.3253,0.3254,0.326,0.3268,0,0,0,0,0,0.3643,0.3616,0.3568,0.3544,0.3529,0.3489,0.347,0.3449,0.3412,0.3398,0.3364,0.3328,0.3293,0.3272,0.3238,0.3204,0.3191,0.3191,0.3192,0.3193,0.319,0.3169,0.3168,0.3178,0.3178,0.3178,0,0,0.3649,0.3616,0.3601,0.355,0.3522,0.3493,0.3477,0.3448,0.3425,0.3393,0.3355,0.3329,0.3286,0.325,0.3232,0.3228,0.3185,0.3192,0.3193,0.319,0.3168,0.3167,0.3166,0.3178,0.3178,0.3178,0,0,0.3647,0.3619,0.3596,0.3568,0.3526,0.35,0.3494,0.3447,0.3428,0.339,0.3365,0.3337,0.3279,0.3249,0.3226,0.3211,0.3192,0.3201,0.3205,0.3184,0.3184,0.3183,0.3176,0.3174,0.3198,0.3198,0.3199,0,0.366,0.3617,0.3585,0.3557,0.3534,0.3505,0.3479,0.3453,0.3402,0.3386,0.3383,0.3309,0.3278,0.3234,0.323,0.3213,0.3203,0.3206,0.3187,0.3185,0.3184,0.3177,0.3175,0.32,0.32,0.3199,0.3199,0,0.3634,0.3605,0.359,0.3543,0.3519,0.3492,0.3454,0.3433,0.3414,0.3387,0.3347,0.3309,0.3266,0.3254,0.3235,0.3206,0.3205,0.3194,0.3188,0.3185,0.3177,0.3175,0.3201,0.3201,0.3201,0.32,0,0,0.365,0.3585,0.358,0.3558,0.3509,0.3484,0.3455,0.3414,0.3396,0.3361,0.3335,0.3286,0.3276,0.325,0.3226,0.3208,0.3197,0.3199,0.3198,0.32,0.3161,0.317,0.3167,0.3184,0.3184,0.3183,0.3165,0,0.364,0.3589,0.3559,0.3519,0.349,0.3461,0.3435,0.3401,0.3375,0.3345,0.3315,0.3281,0.327,0.3254,0.3235,0.3202,0.3188,0.3203,0.3157,0.3156,0.3169,0.3164,0.3172,0.3157,0.3162,0.3161,0.3161,0,0.3622,0.3589,0.3547,0.35,0.3486,0.3464,0.3424,0.3396,0.3356,0.3338,0.3309,0.3285,0.3251,0.3247,0.3198,0.3209,0.3188,0.3169,0.3167,0.3162,0.3158,0.3157,0.3151,0.3149,0.3156,0.3157,0.3157,0,0.3637,0.3581,0.3549,0.353,0.3475,0.346,0.3435,0.3396,0.3373,0.3336,0.3321,0.3281,0.3258,0.3227,0.3192,0.3193,0.3146,0.314,0.3129,0.313,0.312,0.3121,0.3111,0.3108,0.3108,0.3108,0.3108,0,0.3629,0.3604,0.3554,0.3534,0.3505,0.3469,0.344,0.3413,0.3378,0.335,0.3322,0.3296,0.3252,0.322,0.3192,0.3155,0.3146,0.3129,0.3122,0.3131,0.3133,0.3117,0.3117,0.3107,0.3107,0.3108,0.3108,0,0.3641,0.3607,0.3569,0.352,0.3506,0.3487,0.3443,0.3421,0.3393,0.3359,0.3348,0.3303,0.3264,0.3227,0.3174,0.3155,0.3118,0.3109,0.3132,0.3128,0.3119,0.312,0.3097,0.3092,0.3093,0.3093,0.3094,0,0.3638,0.3618,0.3567,0.3547,0.3524,0.3492,0.3469,0.3432,0.3408,0.336,0.3344,0.3303,0.3268,0.3207,0.3168,0.3127,0.3116,0.3111,0.311,0.312,0.3115,0.3117,0.3114,0.3112,0.3112,0.3112,0.3112,0,0.3636,0.362,0.3588,0.355,0.3523,0.349,0.3457,0.3442,0.3398,0.3373,0.3333,0.3306,0.3253,0.3212,0.3166,0.3139,0.3118,0.3113,0.3108,0.3118,0.3132,0.3123,0.3134,0.3114,0.3114,0.3114,0.3113,0.3113,0.3639,0.362,0.3581,0.3545,0.3517,0.3486,0.3462,0.3431,0.3398,0.3353,0.3333,0.3292,0.325,0.3187,0.316,0.3127,0.3121,0.3115,0.3113,0.3111,0.3113,0.3137,0.3118,0.3118,0.3118,0.3118,0.3118,0,0.3635,0.3608,0.3576,0.3531,0.3503,0.3487,0.3448,0.3425,0.3391,0.3354,0.3321,0.3274,0.3234,0.3192,0.3149,0.313,0.3119,0.312,0.312,0.3114,0.3121,0.3129,0.3129,0.3129,0.3129,0.3129,0.3129,0.3129,0.363,0.3596,0.3575,0.3525,0.3498,0.3459,0.3438,0.3409,0.338,0.3329,0.3296,0.327,0.323,0.3184,0.3145,0.3134,0.3119,0.3122,0.3108,0.3114,0.3114,0.3113,0.3121,0.3119,0.3119,0.3104,0.3103,0.3103]}]]